Location: S�tio Afonso Gruber
(26.1760°S, 49.5250°W)
Time: 00:11:04
(UTC+00:00)

Intelsat 5-3 Rocket - Pass Details

Date: 02 October 2020
Orbit: 281 x 6111 km, 23.6° (Epoch: 22 October)

Event Time Altitude Azimuth Distance (km) Brightness Sun altitude
Rises 23:44:15 0° 316° (NW) 3,190 6.5 -32.4°
Reaches altitude 10° 23:46:08 10° 324° (NW) 2,617 5.8 -32.8°
Enters shadow 23:47:35 19° 334° (NNW) 2,275 5.4 -33.1°
